Probability
15 16 15 14 13 12 9 6 5 4 3 2 1 1 1 3 5 8 9 9 10 10 10 9 8 7 6 6 6 6 5 5 5 5 6 6 6 5 4 3 3 3 2
17 18 16 14 13 12 10 8 7 5 4 2 1 1 2 2 4 6 7 8 8 8 8 7 7 6 6 6 6 5 5 4 4 4 5 6 6 5 4 3 3 2 2
17 18 17 15 13 12 11 10 8 6 3 2 2 2 2 2 3 4 5 5 5 5 5 4 4 5 4 4 5 5 4 4 3 3 4 5 6 5 3 2 2 1 1
14 15 15 15 15 14 13 11 8 6 4 4 4 4 3 2 2 3 3 2 2 2 2 2 2 2 2 2 4 4 4 3 3 3 3 4 4 4 3 1 1 0 0
12 14 16 17 16 15 14 11 8 6 6 6 6 6 5 3 2 3 2 1 1 1 1 1 1 1 1 1 2 2 2 2 2 2 3 3 3 3 3 2 1 0 0
14 16 18 17 15 13 11 10 9 7 7 6 6 6 5 3 2 1 2 2 2 1 0 0 0 0 1 1 1 1 1 1 0 1 2 3 3 3 3 3 2 1 0
17 18 18 15 13 11 11 11 11 9 7 6 4 4 4 3 1 0 1 3 3 2 0 0 0 0 1 2 1 0 0 0 0 0 1 2 3 3 3 3 3 1 0
20 18 14 12 11 12 13 14 14 12 9 5 4 3 3 2 1 0 1 2 2 1 0 0 0 0 1 3 2 1 0 0 0 0 0 1 1 2 3 3 3 2 1
20 18 14 11 12 14 15 16 17 15 11 7 4 3 3 2 1 0 0 1 1 0 0 0 0 0 0 1 2 1 0 0 0 0 0 0 0 1 1 2 2 1 0
17 17 15 14 14 16 17 18 19 18 14 8 5 4 3 2 1 0 0 1 1 1 0 0 0 0 0 0 0 0 0 0 0 0 0 0 0 0 0 1 1 1 0
14 15 16 17 17 18 18 19 19 19 15 9 7 6 5 3 1 0 1 2 3 2 1 0 0 0 0 0 0 0 0 0 0 0 0 0 0 0 0 0 0 0 0
10 12 14 17 18 18 19 18 19 19 16 12 9 9 8 6 4 1 1 2 3 3 2 0 0 0 0 0 0 0 0 0 0 0 0 0 0 0 0 0 1 1 1
7 9 11 15 17 19 18 18 18 18 16 13 12 11 10 9 6 3 1 1 1 1 1 0 0 0 0 0 0 0 0 0 0 0 0 0 0 0 0 1 2 2 2
6 7 9 12 16 18 18 17 17 16 14 13 13 12 12 11 8 5 2 1 0 0 0 0 0 0 0 0 0 0 0 0 0 0 0 0 0 0 1 2 3 3 3
6 7 8 10 13 16 17 16 15 14 13 12 12 13 13 12 9 6 4 2 1 0 0 0 1 1 1 1 1 0 0 0 0 0 0 0 0 1 1 3 3 2 1
6 7 8 9 11 13 15 15 13 12 10 8 9 10 11 10 7 5 3 2 1 0 0 0 1 2 2 2 1 0 0 1 1 1 1 1 1 1 2 2 2 1 0
6 7 8 10 11 13 15 15 14 12 10 7 5 6 6 5 3 2 1 1 1 0 0 1 2 3 2 1 1 0 0 1 2 2 2 2 1 1 1 1 1 0 0
7 7 8 10 12 13 15 16 15 14 11 8 5 3 2 1 1 1 0 1 2 1 1 2 3 3 2 1 1 0 0 1 1 1 1 1 1 0 0 0 0 0 0
8 9 10 11 13 13 14 14 14 12 10 8 6 4 2 1 1 1 1 2 3 3 3 3 3 3 3 2 2 1 0 0 0 0 0 0 0 0 0 0 0 0 0
9 10 11 12 13 13 13 13 12 10 9 7 6 4 3 3 3 2 3 3 3 3 3 3 3 3 3 3 3 2 1 0 0 0 0 0 0 0 0 0 0 0 0
7 8 10 11 12 12 12 11 10 9 8 6 5 4 3 4 4 3 3 3 3 3 3 3 3 3 3 3 3 2 1 0 0 0 0 0 0 0 0 0 0 0 0
4 5 7 9 11 11 11 9 8 7 6 5 4 3 3 3 3 3 3 3 3 3 3 3 3 3 3 3 2 2 1 0 0 0 0 0 0 0 0 0 0 0 0
3 3 5 8 9 10 9 8 5 4 3 3 3 3 3 3 3 3 3 3 3 3 2 2 2 2 2 1 1 1 1 0 0 0 0 0 0 0 0 0 0 0 0
3 3 5 7 9 10 9 6 3 2 1 1 1 1 1 2 2 3 3 3 3 1 1 1 1 1 1 0 0 1 1 0 0 0 0 0 0 0 0 0 0 0 0
3 4 5 7 9 9 7 4 1 0 0 0 0 0 0 1 1 1 2 2 2 1 0 0 0 0 0 0 0 0 0 0 0 0 0 0 0 0 0 0 0 0 0
3 4 5 7 8 8 5 3 1 0 0 0 0 0 0 0 0 0 1 1 1 0 0 0 0 0 0 0 0 0 0 0 0 0 0 0 0 0 0 0 0 0 0
Wind_Speed
6 5 4 4 4 4 4 4 3 3 3 2 2 2 2 2 2 2 2 2 3 2 2 3 2 2 1 2 2 2 2 2 2 2 1 1 1 1 1 1 1 1 1
6 5 5 4 4 4 4 3 3 3 3 3 3 2 2 2 2 3 3 2 3 3 2 3 2 2 2 1 1 2 2 2 3 2 1 1 2 2 2 2 1 1 1
6 6 5 5 5 4 3 3 3 3 2 2 2 2 2 2 2 2 3 2 2 2 3 3 3 3 2 1 2 2 1 1 2 2 2 1 1 1 1 1 1 1 1
6 6 6 5 5 4 3 3 3 3 3 3 2 2 2 2 3 2 2 2 2 1 2 3 3 3 3 3 2 2 2 1 1 2 1 1 1 1 1 1 1 1 2
6 6 6 5 4 4 3 3 3 3 3 3 3 3 2 2 3 3 3 2 2 2 1 2 2 3 4 3 2 3 3 2 2 2 2 1 1 2 2 2 2 2 2
7 6 5 5 4 4 4 3 3 3 2 3 3 3 3 2 3 5 4 2 2 2 2 1 1 2 2 2 3 3 4 3 3 3 2 3 3 3 2 2 1 1 2
7 6 5 5 5 4 4 4 4 3 3 3 3 3 3 3 4 5 5 3 3 3 3 2 2 1 2 1 1 2 2 2 4 3 4 4 4 4 3 3 3 3 2
6 5 5 6 5 4 5 5 4 4 4 3 3 3 3 3 4 4 4 3 2 2 2 3 2 2 2 2 2 1 1 1 2 3 3 4 4 3 4 4 3 2 1
6 6 6 6 6 6 6 5 4 4 4 3 3 3 3 3 4 5 4 2 2 2 2 2 3 3 3 4 3 2 1 2 2 2 3 3 3 4 3 2 2 2 2
6 6 6 6 6 7 6 5 3 3 4 4 3 3 3 3 4 5 5 3 2 2 1 2 2 3 3 4 3 3 3 3 2 1 1 2 2 2 4 4 4 3 2
4 4 4 6 6 5 4 4 3 3 3 3 3 2 3 3 4 5 5 3 4 3 2 2 2 3 3 4 4 4 5 3 2 2 2 2 1 1 2 2 3 4 3
3 3 4 4 4 4 4 4 4 4 4 4 3 2 2 3 4 5 6 6 5 4 3 3 3 4 4 4 3 3 4 3 1 1 2 2 2 2 2 2 3 3 3
3 3 3 3 3 4 5 5 4 4 4 3 4 4 3 3 3 5 6 6 6 4 3 4 4 4 4 3 3 4 3 2 2 2 3 3 3 3 2 1 1 2 2
3 3 2 3 3 2 3 4 4 4 4 4 4 4 3 3 3 3 3 4 4 3 2 2 3 3 2 2 2 2 2 3 3 3 3 3 2 2 2 2 2 1 1
2 2 2 3 3 3 2 3 4 4 5 6 5 5 4 5 5 5 4 4 4 3 2 1 1 1 1 2 2 2 2 2 3 3 3 3 3 2 2 2 2 2 2
1 2 2 2 2 2 2 1 1 2 3 5 4 5 4 5 5 6 7 6 5 6 4 2 3 3 4 4 3 3 3 3 4 4 4 4 4 4 3 2 2 3 3
1 1 1 2 2 2 3 3 2 1 1 2 3 4 4 4 5 6 6 5 5 7 4 4 4 4 4 4 4 4 4 4 3 4 4 4 4 4 3 3 3 3 3
0 1 1 2 2 2 2 2 2 2 2 2 3 4 4 4 4 5 4 4 2 3 3 4 5 4 4 4 4 4 4 4 3 4 4 4 4 4 4 4 4 4 4
0 0 1 1 1 1 2 2 2 2 2 2 1 1 2 3 2 3 5 3 3 4 4 4 4 4 4 4 4 4 4 4 4 4 4 4 4 4 5 5 4 5 4
0 1 1 1 1 1 1 1 2 2 2 2 2 2 1 1 1 1 2 3 3 4 4 4 4 4 4 4 4 3 4 4 4 4 4 4 4 4 5 5 5 4 4
0 0 0 0 1 1 1 2 2 2 2 2 2 2 2 2 2 2 3 3 4 4 4 4 4 4 4 4 4 4 4 4 4 4 4 4 4 4 4 5 5 5 4
1 1 1 1 1 1 1 1 2 2 2 2 1 1 3 2 2 2 3 3 4 4 4 3 4 4 4 4 4 4 5 5 4 4 4 3 3 4 4 4 4 4 4
1 1 1 1 1 1 1 1 1 2 2 2 2 1 2 2 3 3 3 3 3 3 3 3 4 4 4 4 4 4 5 5 5 4 4 3 3 3 3 3 4 4 4
2 2 2 2 2 2 2 2 2 2 2 2 2 2 2 2 3 3 3 3 3 3 3 3 4 6 6 4 3 4 4 4 4 4 5 4 4 3 3 3 4 4 4
2 2 2 2 2 2 2 2 2 2 2 2 2 2 2 2 3 3 3 3 3 4 4 4 4 5 7 7 5 5 4 4 4 4 4 4 4 4 4 4 4 4 4
2 2 2 2 2 2 2 2 2 2 2 2 3 3 2 2 3 3 3 3 3 4 4 4 5 6 7 6 6 6 4 4 5 5 4 4 4 4 4 4 4 4 4
Wind_Direction
186 187 184 178 174 172 182 195 188 186 183 183 187 177 173 170 166 162 170 166 162 161 158 158 167 162 167 172 175 178 184 186 213 251 234 240 219 232 266 254 240 240 226
185 181 182 178 172 178 187 191 182 183 185 182 172 162 167 163 163 165 172 167 168 169 173 161 167 162 160 168 169 179 193 198 195 226 244 229 226 224 232 240 247 239 241
175 175 176 178 181 187 184 177 168 168 170 161 152 159 168 166 163 163 162 169 174 178 177 176 181 167 174 178 180 185 198 189 188 199 233 238 234 214 226 256 251 268 265
170 175 182 188 188 185 175 167 169 168 168 164 158 169 178 170 167 160 154 156 160 177 181 180 183 182 188 185 189 191 182 169 175 192 219 231 233 217 209 231 253 264 274
172 180 189 185 173 163 165 170 172 175 173 161 159 168 171 173 177 162 159 163 165 172 181 190 198 193 191 198 197 189 178 180 184 201 218 223 224 215 225 224 244 270 264
174 184 178 167 164 166 172 171 170 174 165 162 173 175 178 196 182 177 169 168 179 190 201 215 214 199 197 199 189 187 186 189 202 213 225 232 237 229 219 220 229 246 260
176 179 169 167 173 179 179 176 182 180 170 172 180 174 187 202 191 188 182 178 191 208 212 212 211 198 180 173 161 159 189 199 199 203 220 232 232 219 207 216 216 233 251
172 176 175 171 175 180 182 186 189 185 182 185 192 189 190 209 195 186 178 172 189 210 215 214 209 224 207 173 168 182 260 255 225 212 228 241 239 228 211 211 213 224 256
177 182 184 180 179 183 194 196 192 187 188 187 188 189 193 211 193 182 165 157 177 220 235 225 217 223 212 175 170 197 256 282 272 228 239 249 246 230 199 174 181 194 255
189 189 185 181 185 190 197 195 188 186 191 186 185 198 200 205 200 189 175 176 193 221 249 255 235 224 217 188 186 195 224 255 280 312 312 294 262 222 195 197 196 197 217
190 178 180 186 191 190 187 187 180 182 179 181 190 202 209 213 208 201 191 191 202 212 230 246 252 229 219 210 203 212 228 229 241 257 281 292 289 254 224 212 206 204 211
165 167 185 186 188 186 176 184 182 179 183 191 198 212 223 224 217 216 209 207 199 201 223 235 241 227 222 221 217 222 219 209 216 232 256 265 262 258 249 235 226 225 228
148 168 176 172 184 184 180 185 185 185 190 204 208 220 228 223 228 224 217 217 208 206 226 229 233 229 224 229 230 219 204 198 200 225 244 251 249 251 253 253 235 226 240
161 176 170 165 180 181 183 188 188 191 195 206 216 224 229 225 225 219 215 214 213 217 232 240 231 227 228 243 251 235 222 215 215 231 245 253 252 242 238 231 231 227 238
165 173 167 169 180 187 187 194 194 200 201 201 213 214 213 227 231 212 197 206 208 208 185 185 196 221 240 250 250 245 232 223 230 237 240 242 244 246 248 227 216 207 215
155 175 176 178 183 185 182 193 214 206 214 214 210 202 214 226 213 203 208 208 200 181 168 204 219 224 230 236 239 245 243 240 241 241 241 240 241 242 242 229 215 213 222
161 184 186 186 191 192 188 187 207 273 246 241 237 223 222 221 210 208 208 200 190 169 184 217 224 228 233 235 236 241 247 247 242 241 242 241 239 237 233 227 219 220 226
152 176 184 194 195 195 198 202 202 210 240 275 267 245 234 226 219 211 189 152 172 195 222 231 234 235 235 237 239 244 250 249 238 237 239 241 235 229 229 227 220 220 223
97 180 175 178 178 182 185 191 204 215 231 250 282 287 245 221 205 190 164 185 213 224 232 239 242 241 242 241 241 242 245 245 243 238 236 236 230 226 232 232 222 213 216
53 55 120 161 167 172 184 194 207 218 230 237 243 249 195 154 184 189 200 222 231 237 235 239 241 242 238 235 235 236 242 248 247 243 243 238 231 226 230 229 222 215 216
188 333 41 168 191 199 205 215 221 223 235 247 249 237 194 197 217 224 224 232 238 242 245 243 242 243 239 236 235 236 237 248 250 248 243 237 237 236 233 226 223 220 218
188 193 192 206 218 215 219 222 225 232 241 251 277 252 200 207 223 232 238 242 243 243 244 242 246 246 241 235 232 232 236 244 247 247 245 239 235 235 235 228 223 216 212
202 210 216 226 231 238 238 236 234 241 250 257 261 260 231 238 240 240 245 250 249 246 245 244 249 255 252 242 233 228 231 238 242 239 235 232 229 228 225 226 223 216 214
213 222 231 240 239 239 241 243 242 250 256 261 266 263 254 251 255 255 254 254 255 254 248 241 245 254 253 245 239 234 235 241 239 234 226 226 225 225 221 221 224 221 216
233 234 234 235 235 235 240 246 251 257 260 262 265 268 267 262 264 265 262 255 250 252 254 249 248 251 251 244 240 239 236 231 233 237 225 219 222 221 220 220 219 214 212
244 242 236 229 227 228 229 238 246 253 257 259 261 261 262 265 266 266 265 263 260 257 257 252 254 254 254 247 245 246 235 226 225 226 223 219 219 220 219 221 218 214 209